Home   Weather   Schwäbisch Hall   Past weeks

Flag for Germany Past Weather in Schwäbisch Hall, Baden-Württemberg, Germany — Yesterday and Last 2 Weeks

Now
70 °F

Passing clouds.


Feels Like: 70 °F
Forecast: 61 / 77 °F
Wind: 13 mph from West

Location: Niederstetten

Current Time: Jun 25, 2017 at 12:27:03 pm

Latest Report: Jun 25, 2017 at 11:20 am


Visibility: N/A

Pressure: 29.98 "Hg

Humidity: 50%

Dew Point: 50 °F

Location of Schwäbisch HallLocation

Past Weather in Schwäbisch Hall — Graph

°F

Schwäbisch Hall Temperature Yesterday

Maximum temperature yesterday: 75 °F (at 5:20 pm)
Minimum temperature yesterday: 59 °F (at 4:20 am)
Average temperature yesterday: 67 °F

High & Low Weather Summary for the Past Weeks

 TemperatureHumidityPressure
High88 °F (Jun 22, 2:20 pm)94% (Jun 18, 4:20 am)30.30 "Hg (Jun 18, 4:20 am)
Low50 °F (Jun 13, 6:20 am)30% (Jun 19, 6:20 pm)29.89 "Hg (Jun 22, 8:20 pm)
Average68 °F58%30.09 "Hg
* Reported Jun 10 11:20 am — Jun 25 11:20 am, Schwäbisch Hall. Weather by CustomWeather, © 2017

Note: Actual official high and low records may vary slightly from our data, if they occured in-between our weather recording intervals... More about our weather records

Advertising

Schwäbisch Hall Weather History for the Previous 24 Hours

Scroll right to see more
 ConditionsComfort  
Time TempWeatherWind HumidityBarometerVisibility
11:20 am
Sun, Jun 25
70 °FPassing clouds.13 mph50%29.98 "HgN/A
10:20 am70 °FPassing clouds.12 mph53%29.98 "HgN/A
9:20 am68 °FScattered clouds.14 mph56%29.98 "HgN/A
8:20 am64 °FScattered clouds.14 mph64%29.98 "HgN/A
7:20 am63 °FCloudy.8 mph68%29.98 "HgN/A
6:20 am61 °FBroken clouds.6 mph68%29.95 "HgN/A
5:20 am61 °FPassing clouds.8 mph68%29.98 "HgN/A
4:20 am63 °FPassing clouds.5 mph64%29.98 "HgN/A
3:20 am61 °FPassing clouds.3 mph68%29.98 "HgN/A
2:20 am57 °FPassing clouds.2 mph77%30.01 "HgN/A
1:20 am59 °FCool.2 mph72%30.01 "HgN/A
12:20 am59 °FCool.1 mph72%30.01 "HgN/A
11:20 pm
Sat, Jun 24
61 °FCool.2 mph68%30.01 "HgN/A
10:20 pm66 °FMild.3 mph56%30.01 "HgN/A
9:20 pm70 °FMild.5 mph50%30.01 "HgN/A
8:20 pm72 °FPassing clouds.9 mph44%30.01 "HgN/A
7:20 pm73 °FPassing clouds.12 mph41%30.01 "HgN/A
6:20 pm73 °FPassing clouds.14 mph41%30.01 "HgN/A
5:20 pm75 °FPassing clouds.14 mph41%30.01 "HgN/A
4:20 pm73 °FPassing clouds.13 mph44%30.01 "HgN/A
3:20 pm73 °FPassing clouds.21 mph41%30.04 "HgN/A
2:20 pm73 °FPassing clouds.20 mph44%30.04 "HgN/A
1:20 pm72 °FPassing clouds.21 mph47%30.04 "HgN/A
12:20 pm70 °FPassing clouds.18 mph53%30.07 "HgN/A
Weather by CustomWeather, © 2017

See weather overviewHow to use our weather pages